マクノート彗星

P/2005 L1 ( McNaught )

English version
Home page
Updated on March 13, 2011

---------------------------------------------------------------------

・ プロフィール

発見日 2005年6月2日
発見光度 16.7等
発見者 R. H. McNaught (Siding Spring)

・ 軌道要素

Epoch 2005 Dec. 16.0 TT = JDT 2453720.5
T 2005 Dec. 13.30445 TT                                 MPC
q   3.1427182            (2000.0)            P               Q
n   0.12441338     Peri.  149.60174     +0.31091058     +0.94621486
a   3.9739706      Node   138.32784     -0.89686586     +0.32325368
e   0.2091743      Incl.    7.73713     -0.31458899     +0.01358287
P   7.92
From 241 observations 2005 May 16-Sept. 15, mean residual 0".5.

・ 星図

・ 光度変化

        m1 = 10.0 + 5 logΔ + 10.0 log r

---------------------------------------------------------------------

軌道要素はM.P.E.C. 2011-E57に掲載されたものです。
星図は StellaNavigator Ver.2.0 for Windows (アストロアーツ 編著 / アスキー出版局刊) で作成したものです。
光度グラフはComet for Windowsで作成したものです。

---------------------------------------------------------------------

Copyright(C) Seiichi Yoshida (comet@aerith.net). All rights reserved.